EW1616 Weather Reports


time (UTC)temp
C
wind
direction
speed
KPH
gust
KPH
rain 1hr
cm
rain 24hr
cm
rain mn
cm
humidity
%
barometer
mb
20260505035507 17 182 1.6 8.0 0.00 0.00 0.00 73 1014.4
20260505035007 17 196 1.6 8.0 0.00 0.00 0.00 73 1014.4
20260505034522 17 189 0.0 4.8 0.00 0.00 0.00 72 1014.5
20260505034011 18 170 0.0 4.8 0.00 0.00 0.00 72 1014.5
20260505033510 18 220 1.6 4.8 0.00 0.00 0.00 72 1014.6
20260505033024 18 184 0.0 8.0 0.00 0.00 0.00 72 1014.6
20260505032507 18 211 1.6 8.0 0.00 0.00 0.00 71 1014.6
20260505032011 18 171 0.0 3.2 0.00 0.00 0.00 71 1014.4
20260505031512 18 172 0.0 3.2 0.00 0.00 0.00 70 1014.5
20260505031003 18 202 0.0 4.8 0.00 0.00 0.00 70 1014.5
20260505030504 18 202 0.0 4.8 0.00 0.00 0.00 70 1014.4
20260505030012 18 202 1.6 6.4 0.00 0.00 0.00 69 1014.4
20260505025507 18 202 1.6 6.4 0.00 0.00 0.00 69 1014.2
20260505025008 18 194 1.6 4.8 0.00 0.00 0.00 68 1014.3
20260505024529 18 231 0.0 3.2 0.00 0.00 0.00 68 1014.0
20260505024007 18 193 0.0 6.4 0.00 0.00 0.00 68 1014.1
20260505023508 18 142 1.6 6.4 0.00 0.00 0.00 67 1014.0
20260505023025 18 156 0.0 3.2 0.00 0.00 0.00 66 1014.1
20260505022508 18 156 0.0 4.8 0.00 0.00 0.00 66 1014.0
20260505022012 18 145 0.0 4.8 0.00 0.00 0.00 66 1014.0
20260505021527 19 196 0.0 4.8 0.00 0.00 0.00 66 1014.0
20260505021011 19 172 0.0 3.2 0.00 0.00 0.00 65 1014.0
20260505020512 19 172 0.0 3.2 0.00 0.00 0.00 65 1014.0
20260505020020 20 157 0.0 3.2 0.00 0.00 0.00 65 1013.9
20260505015504 20 195 0.0 0.0 0.00 0.00 0.00 65 1013.7
20260505015007 20 195 0.0 0.0 0.00 0.00 0.00 64 1013.6
20260505014511 20 195 0.0 0.0 0.00 0.00 0.00 63 1013.6
20260505014008 20 195 0.0 1.6 0.00 0.00 0.00 61 1013.8
20260505013509 20 195 0.0 3.2 0.00 0.00 0.00 59 1013.6
20260505013017 20 195 0.0 4.8 0.00 0.00 0.00 59 1013.7
20260505012509 21 195 1.6 6.4 0.00 0.00 0.00 58 1013.6
20260505012009 21 200 1.6 6.4 0.00 0.00 0.00 57 1013.4
20260505011531 21 213 3.2 6.4 0.00 0.00 0.00 56 1013.4
20260505011010 21 213 3.2 6.4 0.00 0.00 0.00 55 1013.3
20260505010513 21 192 1.6 6.4 0.00 0.00 0.00 55 1013.4
20260505010027 21 212 3.2 6.4 0.00 0.00 0.00 55 1013.6
20260505005510 21 207 1.6 6.4 0.00 0.00 0.00 54 1013.5
20260505005012 22 222 3.2 6.4 0.00 0.00 0.00 54 1013.2
20260505004519 22 205 1.6 4.8 0.00 0.00 0.00 53 1013.2
20260505004007 22 205 1.6 4.8 0.00 0.00 0.00 52 1013.1
20260505003507 22 213 3.2 4.8 0.00 0.00 0.00 50 1013.2
20260505003016 22 223 1.6 4.8 0.00 0.00 0.00 50 1013.3
20260505002509 22 215 1.6 6.4 0.00 0.00 0.00 50 1013.5
20260505002012 23 214 3.2 8.0 0.00 0.00 0.00 49 1013.5
20260505001520 23 44 3.2 11.3 0.00 0.00 0.00 48 1013.5
20260505001014 23 221 3.2 11.3 0.00 0.00 0.00 48 1013.7
20260505000513 23 226 4.8 8.0 0.00 0.00 0.00 47 1013.8
20260505000036 23 239 3.2 8.0 0.00 0.00 0.00 48 1013.9
20260504235510 23 217 1.6 8.0 0.00 0.00 0.00 48 1014.0
20260504235010 23 263 3.2 8.0 0.00 0.00 0.00 47 1014.0
20260504234528 24 228 3.2 8.0 0.00 0.00 0.00 46 1014.0
20260504234010 24 248 1.6 8.0 0.00 0.00 0.00 45 1013.9
20260504233513 25 238 3.2 11.3 0.00 0.00 0.00 45 1013.9
20260504233013 25 263 4.8 11.3 0.00 0.00 0.00 44 1013.9
20260504232507 25 222 3.2 11.3 0.00 0.00 0.00 44 1013.9
20260504232010 25 249 4.8 9.7 0.00 0.00 0.00 44 1013.9
20260504231518 25 231 4.8 11.3 0.00 0.00 0.00 44 1014.0
20260504231009 25 227 6.4 11.3 0.00 0.00 0.00 45 1014.1
20260504230506 25 260 4.8 14.5 0.00 0.00 0.00 44 1014.1
20260504230022 25 223 6.4 14.5 0.00 0.00 0.00 43 1014.0
20260504225507 25 204 4.8 14.5 0.00 0.00 0.00 43 1014.0
20260504225015 25 269 6.4 14.5 0.00 0.00 0.00 43 1014.2
20260504224525 25 234 4.8 12.9 0.00 0.00 0.00 45 1014.3
20260504224009 25 236 4.8 14.5 0.00 0.00 0.00 44 1014.3
20260504223511 25 289 3.2 14.5 0.00 0.00 0.00 45 1014.4
20260504223026 26 240 3.2 14.5 0.00 0.00 0.00 44 1014.3
20260504222506 26 325 4.8 14.5 0.00 0.00 0.00 43 1014.3
20260504222014 26 234 3.2 14.5 0.00 0.00 0.00 43 1014.4
20260504221515 26 220 3.2 16.1 0.00 0.00 0.00 44 1014.5
20260504221008 26 242 6.4 16.1 0.00 0.00 0.00 45 1014.6
20260504220510 26 222 1.6 16.1 0.00 0.00 0.00 45 1014.6
20260504220020 26 250 6.4 16.1 0.00 0.00 0.00 43 1014.7
20260504215507 26 294 4.8 16.1 0.00 0.00 0.00 44 1014.7
20260504215013 26 262 6.4 16.1 0.00 0.00 0.00 45 1014.8
20260504214504 26 225 1.6 12.9 0.00 0.00 0.00 45 1014.7
20260504214002 26 183 4.8 16.1 0.00 0.00 0.00 43 1014.8
20260504213503 26 216 8.0 16.1 0.00 0.00 0.00 43 1014.8
20260504213007 26 240 6.4 14.5 0.00 0.00 0.00 46 1014.8
20260504212507 26 209 4.8 14.5 0.00 0.00 0.00 44 1014.9
20260504212008 26 262 8.0 14.5 0.00 0.00 0.00 46 1014.8
20260504211513 26 244 6.4 14.5 0.00 0.00 0.00 45 1014.9
20260504211007 26 138 1.6 11.3 0.00 0.00 0.00 44 1015.0
20260504210508 26 231 1.6 16.1 0.00 0.00 0.00 44 1015.0
20260504210023 26 240 4.8 16.1 0.00 0.00 0.00 45 1015.2
20260504205508 26 246 9.7 16.1 0.00 0.00 0.00 45 1015.6
20260504205010 26 267 6.4 12.9 0.00 0.00 0.00 45 1015.6
20260504204504 26 276 3.2 14.5 0.00 0.00 0.00 45 1015.5
20260504204002 26 254 3.2 22.5 0.00 0.00 0.00 46 1015.5
20260504203504 26 294 8.0 22.5 0.00 0.00 0.00 45 1015.6
20260504203008 26 268 8.0 19.3 0.00 0.00 0.00 44 1015.8
20260504202506 26 200 4.8 14.5 0.00 0.00 0.00 42 1015.8
20260504202007 26 136 4.8 16.1 0.00 0.00 0.00 42 1015.9
20260504201513 26 290 8.0 17.7 0.00 0.00 0.00 46 1015.9
20260504201004 26 178 6.4 17.7 0.00 0.00 0.00 42 1015.9
20260504200507 26 198 4.8 17.7 0.00 0.00 0.00 45 1016.0
20260504200016 26 180 4.8 17.7 0.00 0.00 0.00 43 1016.0
20260504195507 27 236 3.2 17.7 0.00 0.00 0.00 44 1016.1
20260504195011 26 248 8.0 17.7 0.00 0.00 0.00 44 1016.2
20260504194522 26 38 3.2 16.1 0.00 0.00 0.00 43 1016.3
20260504194009 26 214 4.8 17.7 0.00 0.00 0.00 44 1016.5
20260504193509 26 229 8.0 17.7 0.00 0.00 0.00 42 1016.5
20260504193004 26 261 6.4 16.1 0.00 0.00 0.00 42 1016.6
20260504192504 26 254 6.4 14.5 0.00 0.00 0.00 46 1016.7
20260504192003 26 240 6.4 14.5 0.00 0.00 0.00 43 1016.8
20260504191508 26 225 1.6 14.5 0.00 0.00 0.00 43 1016.8
20260504191003 26 163 4.8 14.5 0.00 0.00 0.00 42 1016.9
20260504190506 26 229 8.0 16.1 0.00 0.00 0.00 43 1016.9
20260504190014 26 181 4.8 17.7 0.00 0.00 0.00 41 1016.9
20260504185507 26 132 6.4 17.7 0.00 0.00 0.00 41 1017.1
20260504185007 26 227 8.0 16.1 0.00 0.00 0.00 42 1017.0
20260504184520 26 207 6.4 14.5 0.00 0.00 0.00 42 1016.8
20260504184009 26 290 3.2 12.9 0.00 0.00 0.00 45 1017.0
20260504183511 26 299 3.2 19.3 0.00 0.00 0.00 44 1017.1
20260504183026 26 213 8.0 19.3 0.00 0.00 0.00 42 1017.2
20260504182509 26 247 3.2 17.7 0.00 0.00 0.00 45 1017.2
20260504182005 26 229 3.2 16.1 0.00 0.00 0.00 43 1017.3
20260504181507 26 246 6.4 19.3 0.00 0.00 0.00 42 1017.5
20260504181004 26 217 4.8 19.3 0.00 0.00 0.00 44 1017.7
20260504180504 25 200 9.7 19.3 0.00 0.00 0.00 43 1017.6
20260504180013 25 240 11.3 19.3 0.00 0.00 0.00 42 1017.6
20260504175503 25 222 6.4 17.7 0.00 0.00 0.00 44 1017.7
20260504175006 25 212 4.8 16.1 0.00 0.00 0.00 42 1017.8
20260504174514 25 225 4.8 16.1 0.00 0.00 0.00 44 1017.8
20260504174008 25 206 8.0 17.7 0.00 0.00 0.00 41 1017.8
20260504173509 25 94 3.2 19.3 0.00 0.00 0.00 44 1017.8
20260504173020 26 205 9.7 19.3 0.00 0.00 0.00 41 1017.7
20260504172509 25 208 4.8 11.3 0.00 0.00 0.00 40 1017.9
20260504172014 25 209 4.8 11.3 0.00 0.00 0.00 46 1017.9
20260504171524 25 272 4.8 24.1 0.00 0.00 0.00 43 1018.0
20260504171010 25 309 4.8 24.1 0.00 0.00 0.00 44 1018.0
20260504170504 25 221 4.8 16.1 0.00 0.00 0.00 45 1018.0
20260504151006 23 103 4.8 12.9 0.00 0.00 0.00 53 1018.6
20260504150511 23 210 3.2 12.9 0.00 0.00 0.00 54 1018.6
20260504141009 21 190 4.8 11.3 0.00 0.00 0.00 68 1018.6
20260504140509 20 229 1.6 8.0 0.00 0.00 0.00 69 1018.6
20260504130511 15 32 0.0 1.6 0.00 0.00 0.00 93 1018.6
20260504110507 10 134 0.0 1.6 0.00 0.00 0.00 91 1017.9
20260504100506 11 215 0.0 0.0 0.00 0.00 0.00 90 1018.0
20260504081527 13 215 0.0 1.6 0.00 0.00 0.00 83 1018.4
20260504081010 13 215 0.0 0.0 0.00 0.00 0.00 83 1018.3
20260504080506 13 215 0.0 0.0 0.00 0.00 0.00 82 1018.1
20260504050507 15 199 0.0 0.0 0.00 0.00 0.00 80 1019.4
20260504050022 15 199 0.0 0.0 0.00 0.00 0.00 79 1019.4
20260504045511 15 199 0.0 1.6 0.00 0.00 0.00 79 1019.4
20260504045009 15 199 0.0 3.2 0.00 0.00 0.00 79 1019.5
20260504044529 15 199 0.0 3.2 0.00 0.00 0.00 80 1019.6
20260504044008 15 199 0.0 3.2 0.00 0.00 0.00 80 1019.6
20260504043511 14 199 0.0 6.4 0.00 0.00 0.00 80 1019.6
20260504043029 14 199 0.0 9.7 0.00 0.00 0.00 80 1019.6
20260504042510 14 161 3.2 9.7 0.00 0.00 0.00 82 1019.6
20260504042012 14 259 0.0 0.0 0.00 0.00 0.00 83 1019.5
20260504041517 14 259 0.0 0.0 0.00 0.00 0.00 83 1019.5
20260504041007 14 259 0.0 0.0 0.00 0.00 0.00 83 1019.5
20260504040507 14 259 0.0 0.0 0.00 0.00 0.00 82 1019.6
20260504040020 14 259 0.0 0.0 0.00 0.00 0.00 82 1019.6